5YMAF HKKI-HKNW

Flight info

Callsign 5YMAF
Flight time N/A
Altitude 11000
Route 0016S03458E DCT 0024S03504E 0047S03521E 0056S03525E 0105S03552E
Aircraft C208/L-SDFGR/C

Departure

Time N/A
Airport Kisumu International Airport (HKKI)

Arrival

Time 2026-05-08 14:24
Airport Nairobi Wilson Airport (HKNW)
Time Latitude Longitude Altitude Speed Heading
2026-05-08 13:13 0.57735 34.55777 4738 ft 0 kts 269°
2026-05-08 13:18 0.57742 34.55772 4738 ft 1 kts
2026-05-08 13:18 0.57757 34.55778 4738 ft 6 kts 25°
2026-05-08 13:19 0.57816 34.55786 4739 ft 9 kts 38°
2026-05-08 13:19 0.57849 34.55859 4742 ft 14 kts 71°
2026-05-08 13:19 0.57873 34.55928 4743 ft 3 kts 93°
2026-05-08 13:19 0.57860 34.55931 4744 ft 2 kts 225°
2026-05-08 13:20 0.57856 34.55902 4743 ft 0 kts 249°
2026-05-08 13:21 0.57857 34.55902 4743 ft 0 kts 249°
2026-05-08 13:21 0.57835 34.55837 4741 ft 32 kts 250°
2026-05-08 13:21 0.57703 34.55445 4726 ft 84 kts 251°
2026-05-08 13:22 0.57513 34.54838 4965 ft 94 kts 246°
2026-05-08 13:22 0.57112 34.54336 5215 ft 102 kts 202°
2026-05-08 13:22 0.56345 34.54385 5340 ft 125 kts 154°
2026-05-08 13:22 0.55581 34.54933 5554 ft 136 kts 142°
2026-05-08 13:23 0.54945 34.55620 6070 ft 131 kts 129°
2026-05-08 13:23 0.54421 34.56331 6526 ft 130 kts 127°
2026-05-08 13:23 0.53865 34.57098 6723 ft 141 kts 125°
2026-05-08 13:23 0.53310 34.57929 6946 ft 146 kts 117°
2026-05-08 13:24 0.53120 34.58927 7180 ft 148 kts 90°
2026-05-08 13:24 0.53065 34.59953 7405 ft 148 kts 98°
2026-05-08 13:24 0.52781 34.60934 7631 ft 147 kts 112°
2026-05-08 13:24 0.52308 34.61837 7857 ft 146 kts 121°
2026-05-08 13:25 0.51734 34.62680 8084 ft 147 kts 126°
2026-05-08 13:25 0.51104 34.63492 8307 ft 149 kts 128°
2026-05-08 13:25 0.50455 34.64277 8536 ft 143 kts 128°
2026-05-08 13:25 0.49831 34.65019 8764 ft 137 kts 130°
2026-05-08 13:26 0.49213 34.65746 8991 ft 138 kts 129°
2026-05-08 13:26 0.48587 34.66470 9217 ft 136 kts 129°
2026-05-08 13:26 0.47978 34.67181 9408 ft 135 kts 130°
2026-05-08 13:26 0.47349 34.67911 9535 ft 141 kts 129°
2026-05-08 13:27 0.46718 34.68671 9670 ft 144 kts 128°
2026-05-08 13:27 0.46068 34.69445 9798 ft 146 kts 129°
2026-05-08 13:27 0.45410 34.70221 9916 ft 147 kts 129°
2026-05-08 13:27 0.44728 34.71003 10039 ft 151 kts 129°
2026-05-08 13:28 0.44045 34.71790 10166 ft 153 kts 129°
2026-05-08 13:28 0.43350 34.72597 10287 ft 154 kts 129°
2026-05-08 13:28 0.42652 34.73414 10411 ft 155 kts 129°
2026-05-08 13:28 0.41949 34.74236 10534 ft 155 kts 129°
2026-05-08 13:29 0.41249 34.75056 10652 ft 156 kts 129°
2026-05-08 13:29 0.40542 34.75884 10786 ft 157 kts 128°
2026-05-08 13:29 0.39831 34.76717 10910 ft 157 kts 128°
2026-05-08 13:29 0.39116 34.77557 10978 ft 162 kts 128°
2026-05-08 13:30 0.38372 34.78420 10992 ft 167 kts 129°
2026-05-08 13:30 0.37603 34.79315 10998 ft 172 kts 129°
2026-05-08 13:30 0.36819 34.80232 10999 ft 175 kts 129°
2026-05-08 13:30 0.36025 34.81162 10999 ft 177 kts 129°
2026-05-08 13:31 0.35223 34.82103 11001 ft 178 kts 129°
2026-05-08 13:31 0.34418 34.83045 11005 ft 179 kts 129°
2026-05-08 13:31 0.33618 34.83981 11007 ft 180 kts 129°
2026-05-08 13:31 0.32806 34.84933 11007 ft 180 kts 129°
2026-05-08 13:32 0.31993 34.85884 11008 ft 180 kts 129°
2026-05-08 13:32 0.31178 34.86838 11008 ft 181 kts 129°
2026-05-08 13:32 0.30362 34.87794 11009 ft 181 kts 129°
2026-05-08 13:32 0.29544 34.88749 11008 ft 181 kts 129°
2026-05-08 13:33 0.28728 34.89705 11009 ft 181 kts 129°
2026-05-08 13:33 0.27912 34.90660 11009 ft 181 kts 129°
2026-05-08 13:33 0.27095 34.91618 11009 ft 181 kts 129°
2026-05-08 13:33 0.26275 34.92576 11009 ft 181 kts 129°
2026-05-08 13:34 0.25457 34.93534 11010 ft 181 kts 129°
2026-05-08 13:34 0.24639 34.94494 11009 ft 181 kts 129°
2026-05-08 13:34 0.23833 34.95449 11009 ft 181 kts 129°
2026-05-08 13:34 0.23020 34.96413 11008 ft 181 kts 129°
2026-05-08 13:35 0.22207 34.97374 11012 ft 180 kts 128°
2026-05-08 13:35 0.21403 34.98329 11023 ft 180 kts 129°
2026-05-08 13:35 0.20596 34.99281 11032 ft 179 kts 129°
2026-05-08 13:35 0.19789 35.00231 11033 ft 179 kts 129°
2026-05-08 13:36 0.18982 35.01180 11037 ft 180 kts 129°
2026-05-08 13:36 0.18164 35.02135 11036 ft 179 kts 129°
2026-05-08 13:36 0.17342 35.03082 11037 ft 181 kts 129°
2026-05-08 13:36 0.16521 35.04034 11036 ft 180 kts 129°
2026-05-08 13:37 0.15706 35.04986 11034 ft 181 kts 129°
2026-05-08 13:37 0.14890 35.05942 11032 ft 181 kts 129°
2026-05-08 13:37 0.14078 35.06898 11028 ft 180 kts 129°
2026-05-08 13:37 0.13273 35.07847 11028 ft 179 kts 129°
2026-05-08 13:38 0.12472 35.08795 11028 ft 182 kts 128°
2026-05-08 13:38 0.11642 35.09759 11029 ft 182 kts 129°
2026-05-08 13:38 0.10825 35.10728 11028 ft 182 kts 129°
2026-05-08 13:38 0.10006 35.11689 11025 ft 182 kts 129°
2026-05-08 13:39 0.09188 35.12644 11028 ft 180 kts 129°
2026-05-08 13:39 0.08369 35.13597 11029 ft 181 kts 129°
2026-05-08 13:39 0.07560 35.14567 11028 ft 182 kts 128°
2026-05-08 13:39 0.06741 35.15534 11028 ft 182 kts 129°
2026-05-08 13:40 0.05918 35.16488 11032 ft 181 kts 129°
2026-05-08 13:40 0.05086 35.17455 11036 ft 185 kts 130°
2026-05-08 13:40 0.04255 35.18416 11029 ft 181 kts 129°
2026-05-08 13:40 0.03430 35.19379 11035 ft 182 kts 129°
2026-05-08 13:41 0.02621 35.20326 11040 ft 182 kts 129°
2026-05-08 13:41 0.01790 35.21294 11039 ft 184 kts 129°
2026-05-08 13:41 0.00960 35.22263 11039 ft 183 kts 129°
2026-05-08 13:41 0.00139 35.23231 11035 ft 182 kts 129°
2026-05-08 13:42 -0.00683 35.24197 11039 ft 183 kts 129°
2026-05-08 13:42 -0.01508 35.25159 11034 ft 181 kts 130°
2026-05-08 13:42 -0.02324 35.26106 11036 ft 180 kts 129°
2026-05-08 13:42 -0.03139 35.27067 11039 ft 181 kts 129°
2026-05-08 13:43 -0.03963 35.28033 11032 ft 184 kts 130°
2026-05-08 13:43 -0.04791 35.29016 11027 ft 185 kts 129°
2026-05-08 13:43 -0.05623 35.29995 11019 ft 185 kts 129°
2026-05-08 13:43 -0.06456 35.30968 11019 ft 184 kts 130°
2026-05-08 13:44 -0.07288 35.31938 11019 ft 184 kts 129°
2026-05-08 13:44 -0.08119 35.32910 11022 ft 184 kts 130°
2026-05-08 13:44 -0.08954 35.33882 11023 ft 184 kts 130°
2026-05-08 13:44 -0.09794 35.34855 11017 ft 185 kts 130°
2026-05-08 13:45 -0.10617 35.35818 11012 ft 184 kts 129°
2026-05-08 13:45 -0.11451 35.36798 10986 ft 185 kts 129°
2026-05-08 13:45 -0.12295 35.37785 10947 ft 187 kts 129°
2026-05-08 13:45 -0.13136 35.38772 10931 ft 186 kts 130°
2026-05-08 13:46 -0.13975 35.39754 10925 ft 185 kts 129°
2026-05-08 13:46 -0.14806 35.40730 10922 ft 184 kts 130°
2026-05-08 13:46 -0.15638 35.41699 10916 ft 183 kts 130°
2026-05-08 13:46 -0.16470 35.42670 10925 ft 185 kts 129°
2026-05-08 13:47 -0.17307 35.43650 10923 ft 185 kts 129°
2026-05-08 13:47 -0.18143 35.44628 10922 ft 186 kts 130°
2026-05-08 13:47 -0.18991 35.45621 10917 ft 190 kts 129°
2026-05-08 13:47 -0.19831 35.46603 10914 ft 187 kts 129°
2026-05-08 13:48 -0.20670 35.47590 10910 ft 186 kts 129°
2026-05-08 13:48 -0.21508 35.48574 10913 ft 186 kts 129°
2026-05-08 13:48 -0.22345 35.49556 10913 ft 185 kts 129°
2026-05-08 13:48 -0.23181 35.50534 10916 ft 185 kts 129°
2026-05-08 13:49 -0.24013 35.51511 10917 ft 185 kts 129°
2026-05-08 13:49 -0.24845 35.52486 10920 ft 184 kts 129°
2026-05-08 13:49 -0.25677 35.53462 10925 ft 184 kts 129°
2026-05-08 13:49 -0.26509 35.54435 10927 ft 184 kts 129°
2026-05-08 13:50 -0.27341 35.55408 10927 ft 184 kts 131°
2026-05-08 13:50 -0.28169 35.56380 10928 ft 183 kts 131°
2026-05-08 13:50 -0.28997 35.57349 10929 ft 183 kts 131°
2026-05-08 13:50 -0.29824 35.58316 10929 ft 183 kts 131°
2026-05-08 13:51 -0.30652 35.59280 10928 ft 181 kts 131°
2026-05-08 13:51 -0.31467 35.60232 10920 ft 180 kts 130°
2026-05-08 13:51 -0.32278 35.61190 10927 ft 181 kts 131°
2026-05-08 13:51 -0.33106 35.62152 10928 ft 182 kts 131°
2026-05-08 13:52 -0.33920 35.63111 10926 ft 181 kts 130°
2026-05-08 13:52 -0.34738 35.64073 10928 ft 181 kts 130°
2026-05-08 13:52 -0.35543 35.65018 10943 ft 181 kts 131°
2026-05-08 13:52 -0.36377 35.65988 10946 ft 182 kts 131°
2026-05-08 13:53 -0.37187 35.66934 10946 ft 182 kts 131°
2026-05-08 13:53 -0.38009 35.67893 10946 ft 182 kts 131°
2026-05-08 13:53 -0.38832 35.68856 10945 ft 182 kts 131°
2026-05-08 13:53 -0.39655 35.69817 10945 ft 182 kts 131°
2026-05-08 13:54 -0.40478 35.70782 10947 ft 183 kts 131°
2026-05-08 13:54 -0.41297 35.71739 10951 ft 181 kts 131°
2026-05-08 13:54 -0.42118 35.72694 10951 ft 181 kts 131°
2026-05-08 13:54 -0.42939 35.73654 10954 ft 180 kts 130°
2026-05-08 13:55 -0.43748 35.74617 10952 ft 182 kts 130°
2026-05-08 13:55 -0.44562 35.75579 10953 ft 181 kts 131°
2026-05-08 13:55 -0.46206 35.77482 10954 ft 180 kts 131°
2026-05-08 13:56 -0.47017 35.78435 10954 ft 180 kts 131°
2026-05-08 13:56 -0.47831 35.79388 10956 ft 181 kts 131°
2026-05-08 13:56 -0.48651 35.80341 10953 ft 181 kts 131°
2026-05-08 13:56 -0.49474 35.81300 10958 ft 183 kts 130°
2026-05-08 13:57 -0.50288 35.82258 10958 ft 182 kts 129°
2026-05-08 13:57 -0.51106 35.83216 10959 ft 180 kts 129°
2026-05-08 13:57 -0.51918 35.84169 10962 ft 180 kts 129°
2026-05-08 13:57 -0.52724 35.85120 10963 ft 178 kts 129°
2026-05-08 13:58 -0.53535 35.86060 10964 ft 179 kts 129°
2026-05-08 13:58 -0.54343 35.87010 10965 ft 180 kts 129°
2026-05-08 13:58 -0.55155 35.87964 10967 ft 180 kts 129°
2026-05-08 13:58 -0.55966 35.88914 10968 ft 180 kts 129°
2026-05-08 13:59 -0.56779 35.89864 10969 ft 179 kts 129°
2026-05-08 13:59 -0.57317 35.90491 10970 ft 180 kts 129°
2026-05-08 13:59 -0.58406 35.91762 10975 ft 181 kts 129°
2026-05-08 13:59 -0.58948 35.92397 10975 ft 181 kts 129°
2026-05-08 14:00 -0.59768 35.93353 10971 ft 181 kts 129°
2026-05-08 14:00 -0.60849 35.94628 10975 ft 182 kts 130°
2026-05-08 14:00 -0.61665 35.95591 10978 ft 181 kts 131°
2026-05-08 14:00 -0.62482 35.96549 10981 ft 181 kts 131°
2026-05-08 14:01 -0.63035 35.97197 10981 ft 182 kts 131°
2026-05-08 14:01 -0.63855 35.98158 10983 ft 182 kts 131°
2026-05-08 14:01 -0.64678 35.99115 10984 ft 182 kts 130°
2026-05-08 14:01 -0.65512 36.00069 10983 ft 182 kts 131°
2026-05-08 14:02 -0.66314 36.01019 10985 ft 181 kts 129°
2026-05-08 14:02 -0.67125 36.01976 10987 ft 181 kts 129°
2026-05-08 14:02 -0.67940 36.02927 10986 ft 180 kts 129°
2026-05-08 14:02 -0.68751 36.03876 10999 ft 180 kts 129°
2026-05-08 14:03 -0.69559 36.04828 10991 ft 180 kts 130°
2026-05-08 14:03 -0.70368 36.05778 10989 ft 179 kts 129°
2026-05-08 14:03 -0.71173 36.06722 10992 ft 179 kts 129°
2026-05-08 14:03 -0.71982 36.07664 11001 ft 178 kts 130°
2026-05-08 14:04 -0.72790 36.08608 11003 ft 178 kts 129°
2026-05-08 14:04 -0.73594 36.09551 11007 ft 179 kts 129°
2026-05-08 14:04 -0.74406 36.10504 11006 ft 180 kts 130°
2026-05-08 14:04 -0.75220 36.11459 10999 ft 181 kts 129°
2026-05-08 14:05 -0.76042 36.12420 10995 ft 181 kts 129°
2026-05-08 14:05 -0.76859 36.13380 11003 ft 181 kts 129°
2026-05-08 14:05 -0.77677 36.14339 11005 ft 181 kts 130°
2026-05-08 14:05 -0.78495 36.15300 11006 ft 182 kts 130°
2026-05-08 14:06 -0.79315 36.16262 11006 ft 182 kts 130°
2026-05-08 14:06 -0.80136 36.17225 11007 ft 182 kts 130°
2026-05-08 14:06 -0.80956 36.18185 11008 ft 182 kts 130°
2026-05-08 14:06 -0.81766 36.19131 11013 ft 181 kts 130°
2026-05-08 14:07 -0.82588 36.20087 11016 ft 181 kts 130°
2026-05-08 14:07 -0.83407 36.21041 11017 ft 181 kts 130°
2026-05-08 14:07 -0.84231 36.22002 11018 ft 182 kts 130°
2026-05-08 14:07 -0.85053 36.22966 11019 ft 182 kts 130°
2026-05-08 14:08 -0.85876 36.23932 11019 ft 182 kts 130°
2026-05-08 14:08 -0.86697 36.24896 11018 ft 182 kts 130°
2026-05-08 14:08 -0.87519 36.25860 11021 ft 182 kts 130°
2026-05-08 14:08 -0.88340 36.26823 11026 ft 182 kts 130°
2026-05-08 14:09 -0.89160 36.27785 11026 ft 182 kts 130°
2026-05-08 14:09 -0.89983 36.28752 11028 ft 182 kts 130°
2026-05-08 14:09 -0.90794 36.29703 11027 ft 182 kts 130°
2026-05-08 14:09 -0.91615 36.30664 11027 ft 182 kts 130°
2026-05-08 14:10 -0.92438 36.31626 11028 ft 182 kts 130°
2026-05-08 14:10 -0.93260 36.32589 11034 ft 182 kts 130°
2026-05-08 14:10 -0.94080 36.33552 11034 ft 182 kts 130°
2026-05-08 14:10 -0.94901 36.34514 11036 ft 182 kts 130°
2026-05-08 14:11 -0.95725 36.35477 11036 ft 182 kts 130°
2026-05-08 14:11 -0.96547 36.36440 11036 ft 182 kts 130°
2026-05-08 14:11 -0.97366 36.37400 11037 ft 182 kts 130°
2026-05-08 14:11 -0.98185 36.38362 11037 ft 182 kts 130°
2026-05-08 14:12 -0.99007 36.39325 11036 ft 182 kts 130°
2026-05-08 14:12 -0.99828 36.40287 11039 ft 182 kts 130°
2026-05-08 14:12 -1.00649 36.41245 11043 ft 181 kts 130°
2026-05-08 14:12 -1.01475 36.42195 11045 ft 181 kts 131°
2026-05-08 14:13 -1.02302 36.43147 11045 ft 181 kts 131°
2026-05-08 14:13 -1.03125 36.44100 11046 ft 181 kts 130°
2026-05-08 14:13 -1.03944 36.45056 11046 ft 181 kts 130°
2026-05-08 14:13 -1.04763 36.46011 11046 ft 181 kts 130°
2026-05-08 14:14 -1.05581 36.46967 11046 ft 181 kts 130°
2026-05-08 14:14 -1.06399 36.47927 11029 ft 182 kts 130°
2026-05-08 14:14 -1.07236 36.48908 10799 ft 193 kts 130°
2026-05-08 14:14 -1.08123 36.49943 10549 ft 198 kts 130°
2026-05-08 14:15 -1.09013 36.50983 10296 ft 195 kts 130°
2026-05-08 14:15 -1.09884 36.52007 10043 ft 192 kts 130°
2026-05-08 14:15 -1.10740 36.53016 9791 ft 189 kts 130°
2026-05-08 14:15 -1.11589 36.54016 9539 ft 188 kts 130°
2026-05-08 14:16 -1.12437 36.55010 9290 ft 187 kts 130°
2026-05-08 14:16 -1.13282 36.56001 9043 ft 186 kts 130°
2026-05-08 14:16 -1.14119 36.56983 8795 ft 185 kts 130°
2026-05-08 14:16 -1.14952 36.57959 8540 ft 184 kts 130°
2026-05-08 14:17 -1.15782 36.58928 8290 ft 183 kts 130°
2026-05-08 14:17 -1.16552 36.59933 8040 ft 182 kts 121°
2026-05-08 14:17 -1.17230 36.61000 7809 ft 181 kts 124°
2026-05-08 14:17 -1.17927 36.61987 7841 ft 169 kts 125°
2026-05-08 14:18 -1.18579 36.62937 7854 ft 163 kts 123°
2026-05-08 14:18 -1.19196 36.63869 7854 ft 159 kts 123°
2026-05-08 14:18 -1.19804 36.64780 7864 ft 157 kts 123°
2026-05-08 14:18 -1.20417 36.65687 7868 ft 157 kts 123°
2026-05-08 14:19 -1.21024 36.66592 7866 ft 157 kts 123°
2026-05-08 14:19 -1.21628 36.67495 7865 ft 156 kts 123°
2026-05-08 14:19 -1.22234 36.68394 7863 ft 156 kts 123°
2026-05-08 14:19 -1.22833 36.69287 7772 ft 158 kts 121°
2026-05-08 14:20 -1.23452 36.70212 7657 ft 161 kts 121°
2026-05-08 14:20 -1.24077 36.71143 7594 ft 160 kts 121°
2026-05-08 14:20 -1.24690 36.72057 7582 ft 157 kts 121°
2026-05-08 14:20 -1.25294 36.72956 7573 ft 156 kts 121°
2026-05-08 14:21 -1.25893 36.73849 7571 ft 152 kts 121°
2026-05-08 14:21 -1.26449 36.74701 7431 ft 143 kts 119°
2026-05-08 14:21 -1.26961 36.75526 7290 ft 135 kts 118°
2026-05-08 14:21 -1.27450 36.76295 7139 ft 126 kts 122°
2026-05-08 14:22 -1.27951 36.76996 6929 ft 120 kts 123°
2026-05-08 14:22 -1.28452 36.77617 6754 ft 110 kts 126°
2026-05-08 14:22 -1.28914 36.78123 6660 ft 89 kts 129°
2026-05-08 14:22 -1.29337 36.78533 6487 ft 82 kts 130°
2026-05-08 14:23 -1.29727 36.78925 6359 ft 81 kts 127°
2026-05-08 14:23 -1.30107 36.79342 6210 ft 82 kts 128°
2026-05-08 14:23 -1.30491 36.79758 6088 ft 81 kts 130°
2026-05-08 14:23 -1.30893 36.80153 5957 ft 81 kts 131°
2026-05-08 14:24 -1.31285 36.80544 5863 ft 79 kts 127°
2026-05-08 14:24 -1.31679 36.80958 5693 ft 85 kts 131°
2026-05-08 14:24 -1.32085 36.81366 5519 ft 79 kts 132°
2026-05-08 14:24 -1.32412 36.81698 5502 ft 33 kts 139°
2026-05-08 14:25 -1.32503 36.81726 5500 ft 14 kts 238°
2026-05-08 14:25 -1.32559 36.81623 5501 ft 19 kts 249°
2026-05-08 14:25 -1.32586 36.81487 5505 ft 21 kts 271°
2026-05-08 14:25 -1.32555 36.81340 5510 ft 22 kts 291°
2026-05-08 14:26 -1.32467 36.81210 5515 ft 24 kts 313°
2026-05-08 14:26 -1.32337 36.81100 5515 ft 23 kts 327°
2026-05-08 14:26 -1.32223 36.81070 5518 ft 16 kts 357°
2026-05-08 14:26 -1.32109 36.81080 5522 ft 16 kts
2026-05-08 14:27 -1.32023 36.81092 5527 ft 11 kts 28°
2026-05-08 14:27 -1.31968 36.81142 5529 ft 11 kts 56°
2026-05-08 14:27 -1.31990 36.81167 5528 ft 0 kts 205°
2026-05-08 14:27 -1.31995 36.81164 5527 ft 0 kts 213°
2026-05-08 14:30 -1.31996 36.81163 5527 ft 0 kts 213°
2026-05-08 14:31 -1.32010 36.81168 5526 ft 5 kts 126°
2026-05-08 14:31 -1.32006 36.81207 5525 ft 8 kts 64°
2026-05-08 14:32 -1.31987 36.81234 5525 ft 3 kts 45°
2026-05-08 14:32 -1.31992 36.81275 5524 ft 9 kts 132°
2026-05-08 14:32 -1.31999 36.81282 5523 ft 1 kts 132°
2026-05-08 14:32 -1.32055 36.81339 5518 ft 25 kts 134°
2026-05-08 14:33 -1.32273 36.81560 5506 ft 65 kts 134°
2026-05-08 14:33 -1.32676 36.81971 5570 ft 91 kts 134°
2026-05-08 14:33 -1.33124 36.82452 5765 ft 97 kts 153°
2026-05-08 14:33 -1.33761 36.82378 5965 ft 105 kts 216°
2026-05-08 14:34 -1.34045 36.81720 6236 ft 107 kts 272°
2026-05-08 14:34 -1.33659 36.81070 6437 ft 117 kts 318°
2026-05-08 14:34 -1.32925 36.80686 6675 ft 117 kts 339°
2026-05-08 14:34 -1.32138 36.80617 6897 ft 118 kts 12°
2026-05-08 14:35 -1.31330 36.80884 7079 ft 120 kts 21°
2026-05-08 14:35 -1.30562 36.81131 7399 ft 113 kts 14°
2026-05-08 14:35 -1.29725 36.81259 7450 ft 130 kts 10°
2026-05-08 14:35 -1.28991 36.81776 7479 ft 140 kts 65°
2026-05-08 14:36 -1.28812 36.82740 7502 ft 146 kts 94°
2026-05-08 14:36 -1.28849 36.83784 7501 ft 155 kts 92°
2026-05-08 14:36 -1.28693 36.84873 7496 ft 163 kts 77°
2026-05-08 14:36 -1.28254 36.85935 7487 ft 168 kts 65°
2026-05-08 14:37 -1.27640 36.86944 7475 ft 172 kts 58°
2026-05-08 14:37 -1.26940 36.87924 7468 ft 174 kts 55°
2026-05-08 14:37 -1.26203 36.88891 7464 ft 176 kts 54°
2026-05-08 14:37 -1.25444 36.89861 7465 ft 178 kts 53°
2026-05-08 14:38 -1.24675 36.90834 7462 ft 178 kts 53°
2026-05-08 14:38 -1.23908 36.91802 7462 ft 178 kts 53°
2026-05-08 14:38 -1.23136 36.92772 7461 ft 179 kts 53°
2026-05-08 14:38 -1.22361 36.93750 7454 ft 180 kts 53°
2026-05-08 14:39 -1.21586 36.94730 7447 ft 179 kts 53°
2026-05-08 14:39 -1.20811 36.95702 7397 ft 181 kts 52°
2026-05-08 14:39 -1.20052 36.96687 7125 ft 168 kts 56°
2026-05-08 14:39 -1.19432 36.97610 6763 ft 154 kts 59°
2026-05-08 14:40 -1.18820 36.98391 6635 ft 134 kts 48°
2026-05-08 14:40 -1.18022 36.98830 6384 ft 135 kts 10°
2026-05-08 14:40 -1.17148 36.98697 6256 ft 126 kts 332°
2026-05-08 14:40 -1.16448 36.98211 6117 ft 116 kts 310°
2026-05-08 14:41 -1.15989 36.97579 5985 ft 111 kts 292°
2026-05-08 14:41 -1.15799 36.96892 5949 ft 99 kts 244°
2026-05-08 14:41 -1.16332 36.96503 5808 ft 98 kts 199°
2026-05-08 14:41 -1.16884 36.96300 5816 ft 76 kts 201°
2026-05-08 14:42 -1.17366 36.96111 5720 ft 72 kts 195°
2026-05-08 14:42 -1.17891 36.96077 5569 ft 78 kts 175°
2026-05-08 14:42 -1.18372 36.96310 5402 ft 82 kts 139°
2026-05-08 14:42 -1.18706 36.96808 5179 ft 91 kts 113°
2026-05-08 14:43 -1.18954 36.97337 5071 ft 73 kts 128°
2026-05-08 14:43 -1.19150 36.97814 4968 ft 77 kts 116°
2026-05-08 14:43 -1.19352 36.98283 4940 ft 56 kts 122°
2026-05-08 14:43 -1.19318 36.98205 4941 ft 0 kts 120°